カタログに戻る

COSMOS 1383

運用中軍事PO
NORAD 13301·PAYLOAD·🇷🇺 Russia

打ち上げ Jun 29, 1982 から Plesetsk Cosmodrome

Loading…

次のパス (今後24時間)

TLE

最新Source: Space-Track

元期: Sep 14, 2026, 09:15 UTC

1 13301U 82066A   26257.38563219  .00000055  00000-0  46885-4 0  9994
2 13301  82.9318 308.4835 0027481  14.5557 356.4625 13.68912632207912

AllMySatでCOSMOS 1383をリアルタイム追跡

Download on the App Store